Starlink 30284

operational
NORAD ID: 57877 Int'l Des: 2023-144 Owner: SPXS Country: US Constellation: starlink
LEOCIRCULAR

Über Starlink 30284

Beschreibung wird geladen...

Live-Position

3D-Globus wird geladen...

Nächste Überflüge

Höhenverlauf

Altitude vs Time

uPlot chart will show altitude changes over time

Zweizeiliger Elementsatz

1 57877U 23144P 25352.33486463 -.00000097 00000-0 79022-5 0 9994
2 57877 43.0048 331.2164 0001224 261.9807 98.0896 15.02534478125813
Epoch: 18. Dez. 2025 • Age: 18 hours

Aktueller Status

Höhe 560.1 km
Geschwindigkeit 7.59 km/s
Subsatellitenpunkt 29.23°N, 10.21°W
Startdatum 16. Sept. 2023
Alter 2.2 years
Typ internet

Technische Details

Klassifizierung Payload
Masse 730.00 kg
Trockenmasse 700.00 kg
Gesamtmasse 730.00 kg
Länge 0.30 m
Durchmesser 4.10 m
Spannweite 29.00 m
Form Box + pan
Hersteller SPXS
Bus-Typ Starlink V2M
Phasenstatus In Orbit
Besitzer/Staat SPXS/US

Große Konstellationen

Loading constellations...